| time (UTC) | temp F | wind direction | speed MPH | gust MPH | rain 1hr in | rain 24hr in | rain mn in | humidity % | barometer mb |
| 20260503234547 | 50 | 298 | 4.0 | 12.0 | 0.00 | 0.45 | 0.20 | 47 | 1006.0 |
| 20260503233046 | 50 | 253 | 3.0 | 11.0 | 0.00 | 0.45 | 0.20 | 47 | 1005.7 |
| 20260503231544 | 51 | 272 | 3.0 | 15.0 | 0.00 | 0.45 | 0.20 | 47 | 1005.3 |
| 20260503230044 | 51 | 279 | 3.0 | 7.0 | 0.00 | 0.45 | 0.20 | 47 | 1005.0 |
| 20260503224543 | 51 | 273 | 3.0 | 15.0 | 0.00 | 0.45 | 0.20 | 46 | 1004.7 |
| 20260503223048 | 52 | 265 | 3.0 | 10.0 | 0.00 | 0.45 | 0.20 | 47 | 1004.5 |
| 20260503221544 | 52 | 247 | 3.0 | 9.0 | 0.00 | 0.45 | 0.20 | 48 | 1004.1 |
| 20260503220041 | 52 | 329 | 3.0 | 15.0 | 0.00 | 0.45 | 0.20 | 48 | 1004.0 |
| 20260503214540 | 52 | 209 | 3.0 | 9.0 | 0.00 | 0.45 | 0.20 | 51 | 1003.8 |
| 20260503213057 | 52 | 225 | 5.0 | 13.0 | 0.00 | 0.45 | 0.20 | 49 | 1003.6 |
| 20260503211538 | 52 | 232 | 3.0 | 15.0 | 0.00 | 0.45 | 0.20 | 52 | 1003.5 |
| 20260503210047 | 52 | 263 | 2.0 | 12.0 | 0.00 | 0.45 | 0.20 | 52 | 1003.3 |
| 20260503204547 | 52 | 239 | 2.0 | 13.0 | 0.00 | 0.45 | 0.20 | 54 | 1003.1 |
| 20260503203034 | 52 | 316 | 3.0 | 13.0 | 0.00 | 0.45 | 0.20 | 56 | 1002.9 |
| 20260503201533 | 51 | 269 | 1.0 | 6.0 | 0.00 | 0.45 | 0.20 | 67 | 1002.9 |
| 20260503200034 | 50 | 351 | 2.0 | 8.0 | 0.00 | 0.45 | 0.20 | 72 | 1002.9 |
| 20260503194535 | 50 | 292 | 4.0 | 9.0 | 0.00 | 0.45 | 0.20 | 68 | 1003.0 |
| 20260503193039 | 51 | 318 | 6.0 | 11.0 | 0.00 | 0.45 | 0.20 | 65 | 1002.9 |
| 20260503191530 | 50 | 300 | 5.0 | 12.0 | 0.00 | 0.45 | 0.20 | 62 | 1002.8 |
| 20260503190034 | 48 | 319 | 4.0 | 9.0 | 0.00 | 0.45 | 0.20 | 67 | 1002.9 |
| 20260503184535 | 48 | 234 | 4.0 | 12.0 | 0.01 | 0.45 | 0.20 | 72 | 1003.1 |
| 20260503183024 | 47 | 284 | 2.0 | 11.0 | 0.01 | 0.45 | 0.20 | 78 | 1003.1 |
| 20260503181523 | 45 | 290 | 2.0 | 9.0 | 0.01 | 0.45 | 0.20 | 86 | 1003.0 |
| 20260503180025 | 44 | 311 | 4.0 | 11.0 | 0.01 | 0.45 | 0.20 | 88 | 1003.0 |
| 20260503174521 | 45 | 325 | 5.0 | 14.0 | 0.00 | 0.44 | 0.19 | 85 | 1002.9 |
| 20260503173021 | 46 | 306 | 6.0 | 12.0 | 0.00 | 0.44 | 0.19 | 83 | 1002.8 |
| 20260503171520 | 48 | 325 | 6.0 | 17.0 | 0.00 | 0.44 | 0.19 | 75 | 1002.7 |
| 20260503170120 | 48 | 331 | 6.0 | 14.0 | 0.00 | 0.44 | 0.19 | 74 | 1002.4 |
| 20260503120103 | 44 | 282 | 2.0 | 8.0 | 0.00 | 0.44 | 0.19 | 93 | 1002.8 |
| 20260503081520 | 45 | 250 | 3.0 | 9.0 | 0.01 | 0.39 | 0.14 | 96 | 1004.0 |
| 20260503071513 | 46 | 286 | 2.0 | 8.0 | 0.03 | 0.38 | 0.13 | 97 | 1004.4 |
| 20260503054559 | 47 | 269 | 0.0 | 4.0 | 0.05 | 0.33 | 0.08 | 97 | 1005.5 |
| 20260503053054 | 47 | 281 | 0.0 | 4.0 | 0.04 | 0.31 | 0.06 | 97 | 1005.7 |
| 20260503051553 | 47 | 219 | 0.0 | 0.0 | 0.03 | 0.28 | 0.04 | 97 | 1006.0 |
| 20260503050049 | 47 | 218 | 0.0 | 0.0 | 0.04 | 0.28 | 0.04 | 96 | 1006.0 |
| 20260503044546 | 47 | 218 | 0.0 | 0.0 | 0.05 | 0.28 | 0.03 | 96 | 1006.4 |
| 20260503043047 | 47 | 218 | 0.0 | 0.0 | 0.06 | 0.27 | 0.02 | 96 | 1006.5 |
| 20260503041546 | 47 | 218 | 0.0 | 0.0 | 0.07 | 0.26 | 0.01 | 96 | 1006.9 |
| 20260503040047 | 47 | 218 | 0.0 | 0.0 | 0.08 | 0.25 | 0.00 | 96 | 1006.9 |
| 20260503034558 | 47 | 218 | 0.0 | 0.0 | 0.07 | 0.23 | 0.23 | 96 | 1006.9 |
| 20260503033044 | 48 | 218 | 0.0 | 0.0 | 0.06 | 0.21 | 0.21 | 96 | 1006.8 |
| 20260503031542 | 48 | 218 | 0.0 | 0.0 | 0.05 | 0.19 | 0.19 | 96 | 1006.9 |
| 20260503030050 | 48 | 218 | 0.0 | 0.0 | 0.05 | 0.17 | 0.17 | 96 | 1006.9 |
| 20260503024535 | 48 | 218 | 0.0 | 2.0 | 0.06 | 0.16 | 0.16 | 96 | 1007.3 |
| 20260503023034 | 48 | 218 | 0.0 | 1.0 | 0.08 | 0.15 | 0.15 | 96 | 1007.6 |
| 20260503021541 | 48 | 218 | 0.0 | 1.0 | 0.09 | 0.14 | 0.14 | 95 | 1007.8 |
| 20260503020032 | 48 | 218 | 0.0 | 0.0 | 0.08 | 0.12 | 0.12 | 95 | 1007.8 |
| 20260503014531 | 48 | 218 | 0.0 | 1.0 | 0.08 | 0.10 | 0.10 | 95 | 1007.9 |
| 20260503013031 | 48 | 218 | 0.0 | 0.0 | 0.05 | 0.07 | 0.07 | 95 | 1008.1 |
| 20260503011534 | 48 | 218 | 0.0 | 1.0 | 0.04 | 0.05 | 0.05 | 94 | 1008.1 |
| 20260503010029 | 48 | 218 | 0.0 | 1.0 | 0.03 | 0.04 | 0.04 | 94 | 1008.1 |
| 20260503004528 | 48 | 218 | 0.0 | 1.0 | 0.01 | 0.02 | 0.02 | 93 | 1008.1 |
| 20260503003028 | 48 | 219 | 0.0 | 0.0 | 0.02 | 0.02 | 0.02 | 93 | 1008.0 |
| 20260503001527 | 48 | 219 | 0.0 | 0.0 | 0.01 | 0.01 | 0.01 | 92 | 1008.1 |
| 20260503000032 | 49 | 219 | 0.0 | 0.0 | 0.01 | 0.01 | 0.01 | 91 | 1008.1 |